Weather History for KAUM - October, 2012

Change the Weather History Date:

Saturday, October 27, 2012

  Actual Average Record
Temperature  
Mean Temperature 34 °F -  
Max Temperature 41 °F 51 °F 69 °F (1999)
Min Temperature 26 °F 35 °F 19 °F (1997)
Degree Days  
Heating Degree Days 32    
Moisture  
Dew Point 23 °F    
Average Humidity 66    
Maximum Humidity 93    
Minimum Humidity 39    
Precipitation  
Precipitation 0.00 in - - ()
Sea Level Pressure  
Sea Level Pressure 30.33 in    
Wind  
Wind Speed 3 mph (WNW)    
Max Wind Speed 8 mph    
Max Gust Speed -    
Visibility 10 miles    
Events      
Averages and records for this station are not official NWS values.
T = Trace of Precipitation, MM = Missing Value Source: NWS Daily Summary

Daily Weather History Graph

Daily Weather History Graph

Search for Another Location

Airport or City:

Trip Planner

Search our weather history database for the weather conditions in past years. The results will help you decide how hot, cold, wet, or windy it might be!

Date:

Astronomy

Oct. 27, 2012 Rise Set
Actual Time 7:41 AM CDT 6:08 PM CDT
Civil Twilight 7:12 AM CDT 6:38 PM CDT
Nautical Twilight 6:38 AM CDT 7:11 PM CDT
Astronomical Twilight 6:05 AM CDT 7:45 PM CDT
Moon 4:56 PM CDT (10/27) 5:34 AM CDT (10/27)
Length of Visible Light 11h 26m
Length of Day
10h 27m
Waxing Gibbous, 96% of the Moon is Illuminated
Oct 27
Waxing Gibbous
Oct 29
Full
Nov 6
Last Quarter
Nov 13
New
Nov 20
First Quarter

Hourly Weather History & Observations

Time (CDT) Temp. Windchill Dew Point Humidity Pressure Visibility Wind Dir Wind Speed Gust Speed Precip Events Conditions
12:15 AM 35.6 °F 29.2 °F 26.6 °F 70% 30.35 in 10.0 mi West 8.1 mph - N/A   Overcast
12:35 AM 35.6 °F 29.2 °F 26.6 °F 70% 30.35 in 10.0 mi WNW 8.1 mph - N/A   Overcast
12:54 AM 35.6 °F 30.7 °F 26.6 °F 70% 30.35 in 10.0 mi WNW 5.8 mph - N/A   Overcast
1:15 AM 33.8 °F 28.6 °F 26.6 °F 75% 30.35 in 10.0 mi West 5.8 mph - N/A   Overcast
1:34 AM 33.8 °F 28.6 °F 26.6 °F 75% 30.34 in 10.0 mi West 5.8 mph - N/A   Overcast
1:55 AM 33.8 °F 28.6 °F 26.6 °F 75% 30.34 in 10.0 mi WNW 5.8 mph - N/A   Overcast
2:15 AM 33.8 °F 29.6 °F 26.6 °F 75% 30.33 in 10.0 mi WNW 4.6 mph - N/A   Overcast
2:34 AM 33.8 °F 30.8 °F 26.6 °F 75% 30.33 in 10.0 mi NW 3.5 mph - N/A   Overcast
2:55 AM 33.8 °F - 26.6 °F 75% 30.33 in 10.0 mi Calm Calm - N/A   Overcast
3:14 AM 33.8 °F - 26.6 °F 75% 30.33 in 10.0 mi Calm Calm - N/A   Overcast
3:35 AM 33.8 °F 30.8 °F 26.6 °F 75% 30.33 in 10.0 mi West 3.5 mph - N/A   Mostly Cloudy
3:55 AM 32.0 °F - 26.6 °F 80% 30.33 in 10.0 mi Calm Calm - N/A   Scattered Clouds
4:14 AM 30.2 °F - 26.6 °F 86% 30.33 in 10.0 mi Calm Calm - N/A   Clear
4:35 AM 30.2 °F - 26.6 °F 86% 30.33 in 10.0 mi Calm Calm - N/A   Scattered Clouds
4:55 AM 30.2 °F - 26.6 °F 86% 30.33 in 10.0 mi Calm Calm - N/A   Overcast
5:14 AM 30.2 °F - 26.6 °F 86% 30.34 in 10.0 mi Calm Calm - N/A   Overcast
5:35 AM 30.2 °F - 26.6 °F 86% 30.33 in 10.0 mi Calm Calm - N/A   Overcast
5:55 AM 30.2 °F - 26.6 °F 86% 30.34 in 10.0 mi Calm Calm - N/A   Overcast
6:14 AM 30.2 °F - 26.6 °F 86% 30.34 in 10.0 mi Calm Calm - N/A   Overcast
6:55 AM 30.2 °F - 24.8 °F 80% 30.35 in 10.0 mi Calm Calm - N/A   Scattered Clouds
7:14 AM 28.4 °F - 24.8 °F 86% 30.35 in 10.0 mi Calm Calm - N/A   Clear
7:35 AM 28.4 °F - 24.8 °F 86% 30.35 in 10.0 mi Calm Calm - N/A   Clear
7:55 AM 26.6 °F - 24.8 °F 93% 30.36 in 10.0 mi Calm Calm - N/A   Clear
8:14 AM 26.6 °F - 24.8 °F 93% 30.36 in 10.0 mi Calm Calm - N/A   Clear
8:35 AM 28.4 °F - 26.6 °F 93% 30.36 in 10.0 mi Calm Calm - N/A   Clear
8:55 AM 30.2 °F - 26.6 °F 86% 30.37 in 10.0 mi Calm Calm - N/A   Clear
9:14 AM 30.2 °F - 26.6 °F 86% 30.37 in 10.0 mi Calm Calm - N/A   Clear
9:35 AM 33.8 °F 30.8 °F 24.8 °F 70% 30.37 in 10.0 mi NW 3.5 mph - N/A   Clear
9:55 AM 35.6 °F 30.7 °F 24.8 °F 65% 30.37 in 10.0 mi NW 5.8 mph - N/A   Clear
10:35 AM 37.4 °F 32.8 °F 23.0 °F 56% 30.37 in 10.0 mi WNW 5.8 mph - N/A   Clear
10:55 AM 37.4 °F 32.8 °F 19.4 °F 48% 30.37 in 10.0 mi WNW 5.8 mph - N/A   Clear
11:15 AM 39.2 °F 37.0 °F 19.4 °F 45% 30.37 in 10.0 mi West 3.5 mph - N/A   Clear
11:35 AM 37.4 °F - 19.4 °F 48% 30.37 in 10.0 mi Calm Calm - N/A   Clear
11:55 AM 39.2 °F 34.2 °F 19.4 °F 45% 30.37 in 10.0 mi SSW 6.9 mph - N/A   Scattered Clouds
12:14 PM 39.2 °F - 17.6 °F 42% 30.36 in 10.0 mi Calm Calm - N/A   Scattered Clouds
12:35 PM 39.2 °F 35.9 °F 19.4 °F 45% 30.35 in 10.0 mi NW 4.6 mph - N/A   Clear
12:54 PM 41.0 °F 39.0 °F 19.4 °F 42% 30.35 in 10.0 mi West 3.5 mph - N/A   Scattered Clouds
1:15 PM 41.0 °F 38.0 °F 19.4 °F 42% 30.34 in 10.0 mi SW 4.6 mph - N/A   Scattered Clouds
1:35 PM 41.0 °F 36.4 °F 17.6 °F 39% 30.33 in 10.0 mi West 6.9 mph - N/A   Scattered Clouds
1:54 PM 41.0 °F - 19.4 °F 42% 30.32 in 10.0 mi Calm Calm - N/A   Scattered Clouds
2:15 PM 39.2 °F 37.0 °F 19.4 °F 45% 30.32 in 10.0 mi SW 3.5 mph - N/A   Scattered Clouds
2:34 PM 39.2 °F 35.9 °F 19.4 °F 45% 30.31 in 10.0 mi West 4.6 mph - N/A   Clear
2:55 PM 39.2 °F 37.0 °F 19.4 °F 45% 30.30 in 10.0 mi NNW 3.5 mph - N/A   Clear
3:15 PM 39.2 °F - 19.4 °F 45% 30.30 in 10.0 mi Calm Calm - N/A   Clear
3:35 PM 39.2 °F - 19.4 °F 45% 30.30 in 10.0 mi Calm Calm - N/A   Clear
3:55 PM 39.2 °F - 19.4 °F 45% 30.29 in 10.0 mi Calm Calm - N/A   Clear
4:15 PM 39.2 °F - 17.6 °F 42% 30.29 in 10.0 mi Calm Calm - N/A   Clear
4:35 PM 39.2 °F - 19.4 °F 45% 30.29 in 10.0 mi Calm Calm - N/A   Clear
4:55 PM 39.2 °F - 19.4 °F 45% 30.29 in 10.0 mi Calm Calm - N/A   Clear
5:15 PM 39.2 °F - 19.4 °F 45% 30.29 in 10.0 mi Calm Calm - N/A   Clear
5:35 PM 39.2 °F - 19.4 °F 45% 30.29 in 10.0 mi Calm Calm - N/A   Clear
5:55 PM 39.2 °F - 23.0 °F 52% 30.29 in 10.0 mi Calm Calm - N/A   Clear
6:15 PM 37.4 °F - 21.2 °F 52% 30.29 in 10.0 mi Calm Calm - N/A   Clear
6:35 PM 37.4 °F - 21.2 °F 52% 30.29 in 10.0 mi Calm Calm - N/A   Clear
6:55 PM 37.4 °F - 19.4 °F 48% 30.29 in 10.0 mi Calm Calm - N/A   Clear
7:15 PM 37.4 °F - 24.8 °F 60% 30.30 in 10.0 mi Calm Calm - N/A   Clear
7:35 PM 35.6 °F - 23.0 °F 60% 30.30 in 10.0 mi Calm Calm - N/A   Clear
7:55 PM 35.6 °F - 24.8 °F 65% 30.31 in 10.0 mi Calm Calm - N/A   Clear
8:14 PM 35.6 °F - 23.0 °F 60% 30.31 in 10.0 mi Calm Calm - N/A   Clear
8:35 PM 33.8 °F - 24.8 °F 70% 30.31 in 10.0 mi Calm Calm - N/A   Clear
8:55 PM 33.8 °F - 26.6 °F 75% 30.31 in 10.0 mi Calm Calm - N/A   Clear
9:14 PM 33.8 °F - 24.8 °F 70% 30.31 in 10.0 mi Calm Calm - N/A   Clear
9:54 PM 32.0 °F - 24.8 °F 75% 30.32 in 10.0 mi Calm Calm - N/A   Clear
10:35 PM 32.0 °F - 24.8 °F 75% 30.32 in 10.0 mi Calm Calm - N/A   Clear
10:55 PM 30.2 °F - 26.6 °F 86% 30.32 in 10.0 mi Calm Calm - N/A   Clear
11:15 PM 30.2 °F - 24.8 °F 80% 30.32 in 10.0 mi Calm Calm - N/A   Clear
11:34 PM 28.4 °F - 24.8 °F 86% 30.33 in 10.0 mi Calm Calm - N/A   Clear
11:55 PM 28.4 °F - 24.8 °F 86% 30.33 in 10.0 mi Calm Calm - N/A   Clear